Epoch 2004 Nov. 11.0 TT = JDT 2453320.5 T 2004 Oct. 23.2861 TT Nakano q 2.104250 (2000.0) P Q n 0.1478630 Peri. 224.1202 +0.6890912 +0.7134264 a 3.541846 Node 89.8867 -0.6246744 +0.6737451 e 0.405889 Incl. 7.3070 -0.3673352 +0.1925884 P 6.67 From 91 observations 1991-1999, mean residual 0".5.
m1 = 11.5 + 5 log d + 15 log r